GW2200 Weather Reports


time (UTC)temp
C
wind
direction
speed
KPH
gust
KPH
rain 1hr
cm
rain 24hr
cm
rain mn
cm
humidity
%
barometer
mb
20260503053503 14 0 0.0 1.6 0.00 0.48 0.46 99 1009.9
20260503053024 14 141 0.0 4.8 0.00 0.48 0.46 99 1009.9
20260503052503 14 135 0.0 4.8 0.00 0.48 0.46 99 1009.9
20260503052003 14 0 0.0 0.0 0.00 0.48 0.46 99 1009.9
20260503051503 14 0 0.0 0.0 0.00 0.48 0.46 99 1009.9
20260503051003 14 0 0.0 0.0 0.00 0.48 0.46 99 1009.9
20260503045503 14 0 0.0 0.0 0.03 0.48 0.46 99 1010.2
20260503045004 14 0 0.0 0.0 0.03 0.48 0.46 99 1010.0
20260503044503 14 0 0.0 0.0 0.03 0.48 0.46 99 1010.0
20260503044003 14 0 0.0 0.0 0.05 0.48 0.46 99 1010.0
20260503043503 14 0 0.0 0.0 0.08 0.48 0.46 99 1009.9
20260503043024 14 0 0.0 0.0 0.10 0.48 0.46 99 1009.9
20260503042503 14 0 0.0 0.0 0.13 0.48 0.46 99 1010.0
20260503042003 14 0 0.0 0.0 0.13 0.48 0.46 98 1010.0
20260503041503 14 0 0.0 0.0 0.13 0.48 0.46 98 1010.0
20260503041003 14 0 0.0 0.0 0.13 0.48 0.46 98 1009.9
20260503040503 14 136 0.0 6.4 0.13 0.48 0.46 98 1010.0
20260503040004 14 138 0.0 6.4 0.13 0.48 0.46 98 1010.1
20260503035503 14 140 0.0 6.4 0.10 0.46 0.43 98 1010.2
20260503035003 14 0 0.0 0.0 0.10 0.46 0.43 98 1010.3
20260503034503 14 0 0.0 0.0 0.10 0.46 0.43 98 1010.3
20260503034003 14 0 0.0 0.0 0.08 0.43 0.43 98 1010.2
20260503033505 14 157 0.0 3.2 0.05 0.41 0.38 98 1010.4
20260503033003 14 164 0.0 6.4 0.05 0.38 0.36 98 1010.6
20260503032503 14 166 0.0 9.7 0.03 0.36 0.33 98 1010.9
20260503032003 14 172 1.6 9.7 0.05 0.36 0.33 98 1010.9
20260503031503 14 176 1.6 9.7 0.05 0.36 0.33 98 1010.9
20260503031003 14 175 0.0 9.7 0.05 0.36 0.33 98 1011.0
20260503030503 14 175 1.6 16.1 0.05 0.36 0.33 98 1011.0
20260503030004 14 176 1.6 16.1 0.05 0.36 0.33 98 1011.1
20260503025524 14 180 0.0 9.7 0.05 0.36 0.33 98 1011.0
20260503025003 14 0 0.0 0.0 0.05 0.36 0.33 98 1011.0
20260503024503 13 0 0.0 0.0 0.05 0.36 0.33 98 1010.9
20260503024003 13 0 0.0 0.0 0.05 0.36 0.33 98 1011.0
20260503023504 13 0 0.0 0.0 0.03 0.33 0.33 98 1011.0
20260503023003 13 0 0.0 0.0 0.03 0.33 0.33 98 1011.0
20260503022505 13 0 0.0 0.0 0.03 0.33 0.33 98 1011.0
20260503022003 13 0 0.0 0.0 0.00 0.33 0.30 98 1011.1
20260503021504 13 0 0.0 1.6 0.00 0.33 0.30 98 1011.2
20260503021003 13 0 0.0 1.6 0.00 0.33 0.30 98 1011.1
20260503020503 13 0 0.0 0.0 0.00 0.33 0.30 98 1011.2
20260503020003 13 0 0.0 0.0 0.00 0.33 0.30 97 1011.2
20260503015503 13 0 0.0 0.0 0.00 0.33 0.30 97 1011.0
20260503015003 13 0 0.0 0.0 0.00 0.33 0.30 97 1010.9
20260503014503 13 0 0.0 0.0 0.00 0.33 0.30 97 1010.9
20260503014003 13 0 0.0 0.0 0.00 0.33 0.30 97 1010.9
20260503013524 13 0 0.0 0.0 0.00 0.33 0.30 97 1011.0
20260503013003 13 0 0.0 0.0 0.00 0.33 0.30 97 1011.0
20260503012506 13 0 0.0 0.0 0.00 0.33 0.30 97 1011.1
20260503012503 13 0 0.0 0.0 0.00 0.33 0.30 97 1011.1
20260503012004 13 0 0.0 0.0 0.00 0.33 0.30 97 1011.1
20260503011503 13 0 0.0 0.0 0.00 0.33 0.30 97 1011.3
20260503011006 13 0 0.0 0.0 0.00 0.33 0.30 97 1011.2
20260503010503 13 165 0.0 4.8 0.00 0.33 0.30 97 1011.2
20260503010005 13 165 0.0 4.8 0.00 0.33 0.30 97 1011.4
20260503005503 13 0 0.0 0.0 0.00 0.33 0.30 97 1011.4
20260503005003 14 0 0.0 0.0 0.00 0.33 0.30 97 1011.3
20260503004505 14 0 0.0 0.0 0.00 0.33 0.30 97 1011.3
20260503004503 14 0 0.0 0.0 0.00 0.33 0.30 97 1011.3
20260503004004 14 0 0.0 0.0 0.00 0.33 0.30 97 1011.4
20260503003503 14 0 0.0 0.0 0.00 0.33 0.30 97 1011.3
20260503003004 14 0 0.0 0.0 0.00 0.33 0.30 97 1011.4
20260503002503 14 0 0.0 0.0 0.00 0.33 0.30 97 1011.4
20260503002003 14 0 0.0 0.0 0.00 0.33 0.30 97 1011.3
20260503001503 14 0 0.0 0.0 0.00 0.33 0.30 96 1011.5
20260503001024 14 0 0.0 0.0 0.00 0.33 0.30 96 1011.4
20260503000503 14 0 0.0 0.0 0.00 0.33 0.30 96 1011.5
20260503000003 14 0 0.0 1.6 0.00 0.33 0.30 96 1011.7
20260502235503 14 0 0.0 1.6 0.03 0.33 0.30 96 1011.7
20260502235024 14 0 0.0 0.0 0.05 0.33 0.30 96 1011.6
20260502234503 14 0 0.0 0.0 0.05 0.33 0.30 96 1011.6
20260502234003 14 0 0.0 3.2 0.05 0.33 0.30 96 1011.6
20260502233504 14 0 0.0 3.2 0.10 0.33 0.30 96 1011.7
20260502233003 14 0 0.0 0.0 0.15 0.33 0.30 95 1011.8
20260502232503 14 154 0.0 8.0 0.20 0.33 0.30 95 1011.9
20260502232003 14 150 0.0 8.0 0.23 0.33 0.30 95 1011.8
20260502231524 14 90 0.0 8.0 0.25 0.33 0.30 94 1011.7
20260502231003 14 26 0.0 12.9 0.30 0.33 0.30 94 1011.7
20260502230503 14 35 1.6 12.9 0.30 0.33 0.30 94 1011.8
20260502230004 14 48 1.6 11.3 0.30 0.33 0.30 93 1011.9
20260502225503 14 83 0.0 6.4 0.30 0.30 0.28 93 1012.0
20260502225024 14 75 0.0 3.2 0.28 0.28 0.25 92 1012.1
20260502224524 14 126 0.0 6.4 0.28 0.28 0.25 92 1012.5
20260502224003 14 126 0.0 6.4 0.25 0.25 0.23 92 1012.3
20260502223524 14 43 1.6 19.3 0.23 0.23 0.23 91 1012.2
20260502223003 14 44 1.6 19.3 0.15 0.15 0.15 91 1012.0
20260502222524 15 45 1.6 17.7 0.13 0.13 0.10 91 1012.7
20260502222003 15 163 0.0 11.3 0.10 0.10 0.08 91 1013.5
20260502221524 15 157 1.6 11.3 0.05 0.05 0.05 91 1013.7
20260502221003 15 153 1.6 11.3 0.03 0.03 0.00 91 1013.8
20260502220503 15 147 1.6 11.3 0.03 0.03 0.00 91 1014.0
20260502220004 15 154 3.2 17.7 0.03 0.03 0.00 90 1014.2
20260502215503 15 162 3.2 17.7 0.00 0.00 0.00 90 1014.5
20260502215024 14 167 1.6 17.7 0.00 0.00 0.00 89 1014.7
20260502214503 14 31 0.0 6.4 0.00 0.00 0.00 88 1013.1
20260502214003 14 28 0.0 6.4 0.00 0.00 0.00 88 1012.9
20260502213503 14 22 0.0 8.0 0.00 0.00 0.00 88 1012.9
20260502213024 14 34 0.0 8.0 0.00 0.00 0.00 88 1012.9
20260502212503 14 49 0.0 4.8 0.00 0.00 0.00 88 1012.9
20260502212004 14 59 0.0 3.2 0.00 0.00 0.00 88 1012.9
20260502211503 14 2 0.0 3.2 0.00 0.00 0.00 88 1012.9
20260502211003 14 19 0.0 4.8 0.00 0.00 0.00 88 1012.9
20260502210504 14 20 0.0 6.4 0.00 0.00 0.00 88 1013.0
20260502210024 14 16 0.0 6.4 0.00 0.00 0.00 88 1013.1
20260502205502 14 23 0.0 6.4 0.00 0.00 0.00 87 1013.2
20260502205003 14 30 1.6 8.0 0.00 0.00 0.00 87 1013.4
20260502204503 15 24 3.2 8.0 0.00 0.00 0.00 87 1013.3
20260502204024 15 20 3.2 9.7 0.00 0.00 0.00 86 1013.4
20260502203525 15 23 1.6 9.7 0.00 0.00 0.00 86 1013.6
20260502203003 15 18 0.0 4.8 0.00 0.00 0.00 86 1013.6
20260502202502 15 8 0.0 6.4 0.00 0.00 0.00 85 1013.7
20260502202003 15 25 1.6 8.0 0.00 0.00 0.00 85 1013.9
20260502201503 15 26 1.6 8.0 0.00 0.00 0.00 84 1013.8
20260502201003 15 33 0.0 8.0 0.00 0.00 0.00 84 1013.9
20260502200504 15 29 0.0 8.0 0.00 0.00 0.00 83 1014.0
20260502200003 15 347 0.0 4.8 0.00 0.00 0.00 81 1014.2
20260502195503 15 11 0.0 9.7 0.00 0.00 0.00 80 1014.0
20260502195003 15 25 1.6 9.7 0.00 0.00 0.00 79 1014.0
20260502194504 16 25 1.6 8.0 0.00 0.00 0.00 78 1013.9
20260502194003 16 27 0.0 4.8 0.00 0.00 0.00 77 1014.0
20260502193503 16 28 0.0 3.2 0.00 0.00 0.00 77 1013.9
20260502193004 16 0 0.0 0.0 0.00 0.00 0.00 77 1013.9
20260502192503 16 5 0.0 4.8 0.00 0.00 0.00 77 1013.9
20260502192004 16 5 0.0 4.8 0.00 0.00 0.00 77 1013.9
20260502191503 16 0 0.0 0.0 0.00 0.00 0.00 77 1014.0
20260502191024 16 0 0.0 0.0 0.00 0.00 0.00 76 1014.1
20260502190503 16 0 0.0 0.0 0.00 0.00 0.00 76 1014.1
20260502190003 16 0 0.0 0.0 0.00 0.00 0.00 76 1014.3
20260502185524 16 12 0.0 6.4 0.00 0.00 0.00 75 1014.0
20260502185024 16 21 1.6 6.4 0.00 0.00 0.00 72 1014.1
20260502184504 17 26 0.0 6.4 0.00 0.00 0.00 72 1014.1
20260502184003 17 24 0.0 6.4 0.00 0.00 0.00 73 1013.9
20260502183503 17 7 0.0 3.2 0.00 0.00 0.00 71 1014.0
20260502182524 18 0 0.0 0.0 0.00 0.00 0.00 65 1014.0
20260502182003 18 0 0.0 0.0 0.00 0.00 0.00 64 1013.9
20260502180503 18 0 0.0 0.0 0.00 0.00 0.00 64 1013.8
20260502170503 20 242 0.0 8.0 0.00 0.00 0.00 52 1014.8
20260502164024 20 237 1.6 14.5 0.00 0.00 0.00 54 1015.3
20260502163503 21 224 3.2 12.9 0.00 0.00 0.00 54 1015.3
20260502163003 21 230 3.2 12.9 0.00 0.00 0.00 54 1015.5
20260502162504 20 230 1.6 11.3 0.00 0.00 0.00 54 1015.5
20260502162003 21 232 1.6 11.3 0.00 0.00 0.00 52 1015.5
20260502161503 20 271 0.0 8.0 0.00 0.00 0.00 53 1015.5
20260502161024 20 228 1.6 16.1 0.00 0.00 0.00 53 1015.4
20260502160503 20 244 1.6 16.1 0.00 0.00 0.00 53 1015.4
20260502152003 20 239 1.6 11.3 0.00 0.00 0.00 53 1015.8
20260502151503 21 224 3.2 12.9 0.00 0.00 0.00 53 1015.9
20260502151003 21 228 3.2 12.9 0.00 0.00 0.00 53 1015.8
20260502150503 21 237 1.6 16.1 0.00 0.00 0.00 53 1015.9
20260502130504 20 233 4.8 17.7 0.00 0.00 0.00 65 1016.9
20260502123503 20 237 6.4 19.3 0.00 0.00 0.00 64 1017.3
20260502123003 20 233 6.4 19.3 0.00 0.00 0.00 73 1017.2
20260502122503 20 230 6.4 22.5 0.00 0.00 0.00 74 1017.2
20260502122004 20 230 6.4 22.5 0.00 0.00 0.00 74 1017.3
20260502121503 21 227 4.8 17.7 0.00 0.00 0.00 74 1017.2
20260502121003 21 225 3.2 14.5 0.00 0.00 0.00 74 1017.2
20260502120504 21 228 3.2 16.1 0.00 0.00 0.00 75 1017.1
20260502115503 21 224 4.8 22.5 0.00 0.00 0.00 73 1017.3
20260502115024 21 230 3.2 22.5 0.00 0.00 0.00 73 1017.2
20260502114005 21 207 4.8 17.7 0.00 0.00 0.00 75 1017.4
20260502113503 21 210 4.8 17.7 0.00 0.00 0.00 75 1017.3
20260502113003 20 219 3.2 16.1 0.00 0.00 0.00 76 1017.3
20260502112503 20 221 3.2 22.5 0.00 0.00 0.00 77 1017.6
20260502112025 20 222 4.8 22.5 0.00 0.00 0.00 77 1017.5
20260502111507 20 225 3.2 16.1 0.00 0.00 0.00 78 1017.5
20260502111003 20 227 3.2 16.1 0.00 0.00 0.00 77 1017.5
20260502110503 20 221 3.2 17.7 0.00 0.00 0.00 77 1017.6
20260502110024 20 237 4.8 17.7 0.00 0.00 0.00 77 1017.4
20260502105504 20 246 4.8 16.1 0.00 0.00 0.00 77 1017.5
20260502105003 20 239 4.8 20.9 0.00 0.00 0.00 77 1017.6
20260502104503 20 240 4.8 20.9 0.00 0.00 0.00 77 1017.6
20260502104024 20 233 6.4 19.3 0.00 0.00 0.00 76 1017.6
20260502103503 20 232 4.8 19.3 0.00 0.00 0.00 77 1017.6
20260502103003 20 236 4.8 19.3 0.00 0.00 0.00 77 1017.5
20260502102505 20 230 4.8 17.7 0.00 0.00 0.00 78 1017.6
20260502102024 20 215 3.2 19.3 0.00 0.00 0.00 78 1017.6
20260502101524 20 213 4.8 19.3 0.00 0.00 0.00 77 1017.6
20260502101003 20 217 4.8 20.9 0.00 0.00 0.00 77 1017.6
20260502100503 20 208 4.8 24.1 0.00 0.00 0.00 77 1017.6
20260502091503 18 204 3.2 14.5 0.00 0.00 0.00 86 1017.8
20260502091003 17 226 1.6 8.0 0.00 0.00 0.00 86 1017.7
20260502090504 17 227 0.0 9.7 0.00 0.00 0.00 87 1017.7
20260502071503 15 225 0.0 4.8 0.00 0.00 0.00 79 1018.0
20260502071003 15 223 1.6 6.4 0.00 0.00 0.00 79 1017.8
20260502070503 15 214 1.6 8.0 0.00 0.00 0.00 78 1018.0
20260502070004 15 205 0.0 8.0 0.00 0.00 0.00 78 1018.0
20260502065503 15 188 0.0 6.4 0.00 0.00 0.00 78 1018.0
20260502065003 15 188 0.0 6.4 0.00 0.00 0.00 77 1018.0
20260502064502 15 0 0.0 0.0 0.00 0.00 0.00 77 1017.9
20260502064002 15 0 0.0 0.0 0.00 0.00 0.00 77 1017.8
20260502063503 15 0 0.0 0.0 0.00 0.00 0.00 77 1017.8
20260502063002 14 0 0.0 0.0 0.00 0.00 0.00 77 1017.7
20260502062502 14 0 0.0 0.0 0.00 0.00 0.00 76 1017.8
20260502062003 14 225 0.0 3.2 0.00 0.00 0.00 76 1017.8
20260502061502 14 225 0.0 3.2 0.00 0.00 0.00 75 1017.9
20260502061002 14 0 0.0 0.0 0.00 0.00 0.00 75 1017.8
20260502060502 13 200 0.0 8.0 0.00 0.00 0.00 75 1017.9
20260502060023 13 202 0.0 8.0 0.00 0.00 0.00 74 1017.8
20260502055502 13 203 0.0 4.8 0.00 0.00 0.00 74 1017.9
20260502055002 13 197 0.0 8.0 0.00 0.00 0.00 73 1017.8
20260502054523 13 199 0.0 8.0 0.00 0.00 0.00 73 1017.7
20260502054002 13 201 1.6 12.9 0.00 0.00 0.00 72 1017.7